Overview Statistics Trail Chart Weather Telemetry Raw packets
 

This is the latest recevied weather packets stored in our database for station/object DK6GC-10. If no packets are shown the sender has not sent any weather packets the latest 10 day(s).

<< 6 7 8 9 10 11 12 >>
Time Temp. Humidity Pressure Rain* Wind** Luminosity Snow
1788534018 31.67° C 37% 1015.6 hPa - - - -
1788533118 31.11° C 36% 1015.6 hPa - - - -
1788532218 31.11° C 39% 1015.5 hPa - - - -
1788531317 31.11° C 39% 1015.7 hPa - - - -
1788530417 31.11° C 39% 1015.9 hPa - - - -
1788529517 31.11° C 39% 1016 hPa - - - -
1788528617 31.11° C 39% 1016.3 hPa - - - -
1788527716 31.11° C 40% 1016.4 hPa - - - -
1788526816 31.11° C 40% 1016.7 hPa - - - -
1788525916 30.56° C 40% 1016.9 hPa - - - -
1788525015 30.56° C 40% 1017 hPa - - - -
1788524115 30.56° C 41% 1017.3 hPa - - - -
1788523220 30.56° C 41% 1017.4 hPa - - - -
1788522320 30° C 42% 1017.7 hPa - - - -
1788521420 30° C 43% 1018 hPa - - - -
1788520520 30° C 45% 1018.2 hPa - - - -
1788519620 29.44° C 43% 1018.5 hPa - - - -
1788518719 29.44° C 46% 1018.6 hPa - - - -
1788517835 28.89° C 46% 1018.7 hPa - - - -
1788516919 28.89° C 47% 1019 hPa - - - -
1788516019 28.33° C 47% 1019.3 hPa - - - -
1788515119 28.33° C 48% 1019.5 hPa - - - -
1788514218 27.78° C 50% 1019.6 hPa - - - -
1788513347 27.22° C 50% 1019.7 hPa - - - -
1788512418 27.22° C 49% 1019.7 hPa - - - -

* Rain since midnight (hover to see other rain measurements)
** Current wind speed in m/s (hover to see current wind gust speed)